Location: Broekland
(52.3610°N, 6.2005°E)
Time: 16:42:19
(UTC+00:00)

ACS3 Solar Sail - Pass Details

Date: 20 January 2026
Orbit: 900 x 968 km, 97.2° (Epoch: 10 February)

Event Time Altitude Azimuth Distance (km) Brightness Sun altitude
Rises 04:00:32 0° 7° (N) 3,654 5.0 -31.8°
Reaches altitude 10° 04:03:36 10° 352° (N) 2,692 4.1 -31.4°
Enters shadow 04:03:39 10° 352° (N) 2,678 4.1 -31.4°
